OVERFALLS Weather Reports


Display with metric or nautical units.
time (UTC)temp
F
wind
direction
speed
MPH
gust
MPH
rain 1hr
in
rain 24hr
in
rain mn
in
humidity
%
barometer
mb
20260505191544 83 258 11.0 25.0 0.00 0.00 0.00 32 1012.1
20260505190043 83 192 11.0 22.0 0.00 0.00 0.00 34 1012.0
20260505184545 83 181 10.0 21.0 0.00 0.00 0.00 34 1012.2
20260505183047 83 230 10.0 20.0 0.00 0.00 0.00 36 1012.1
20260505181546 82 234 12.0 24.0 0.00 0.00 0.00 36 1012.5
20260505180045 82 231 9.0 20.0 0.00 0.00 0.00 38 1012.7
20260505174542 82 222 10.0 17.0 0.00 0.00 0.00 40 1012.9
20260505173042 82 201 9.0 17.0 0.00 0.00 0.00 40 1012.9
20260505171546 82 245 8.0 19.0 0.00 0.00 0.00 40 1013.2
20260505170045 82 232 8.0 19.0 0.00 0.00 0.00 40 1013.1
20260505164549 81 212 7.0 16.0 0.00 0.00 0.00 40 1013.1
20260505163045 80 182 9.0 20.0 0.00 0.00 0.00 41 1013.2
20260505161547 80 249 6.0 14.0 0.00 0.00 0.00 43 1013.3
20260505153040 77 194 8.0 18.0 0.00 0.00 0.00 47 1013.5
20260505151545 77 276 8.0 17.0 0.00 0.00 0.00 47 1013.4
20260505124549 68 237 7.0 18.0 0.00 0.00 0.00 62 1013.4
20260505123041 67 199 8.0 16.0 0.00 0.00 0.00 63 1013.5
20260505121544 66 252 8.0 19.0 0.00 0.00 0.00 66 1013.3
20260505120043 65 204 9.0 21.0 0.00 0.00 0.00 66 1013.4
20260505114542 65 221 9.0 18.0 0.00 0.00 0.00 67 1013.2
20260505113045 64 242 8.0 15.0 0.00 0.00 0.00 68 1013.2
20260505111545 64 236 5.0 16.0 0.00 0.00 0.00 69 1013.2
20260505101549 63 219 8.0 16.0 0.00 0.00 0.00 69 1012.9
20260505100045 63 258 8.0 17.0 0.00 0.00 0.00 68 1012.7
20260505094544 63 230 7.0 14.0 0.00 0.00 0.00 68 1012.5
20260505093043 63 191 8.0 18.0 0.00 0.00 0.00 68 1012.4
20260505091541 63 252 7.0 16.0 0.00 0.00 0.00 69 1012.4
20260505090045 63 232 6.0 14.0 0.00 0.00 0.00 69 1012.3
20260505084550 63 227 7.0 14.0 0.00 0.00 0.00 69 1012.3
20260505083055 63 185 6.0 14.0 0.00 0.00 0.00 70 1012.4
20260505081552 63 254 8.0 17.0 0.00 0.00 0.00 70 1012.3
20260505080049 63 204 7.0 17.0 0.00 0.00 0.00 71 1012.4
20260505074548 62 234 4.0 17.0 0.00 0.00 0.00 72 1012.4
20260505073044 62 240 5.0 14.0 0.00 0.00 0.00 73 1012.3
20260505071549 62 226 8.0 17.0 0.00 0.00 0.00 74 1012.3
20260505070042 62 211 6.0 13.0 0.00 0.00 0.00 74 1012.3
20260505064543 62 213 6.0 18.0 0.00 0.00 0.00 75 1012.2
20260505063043 62 213 8.0 14.0 0.00 0.00 0.00 74 1012.2
20260505061542 62 239 6.0 17.0 0.00 0.00 0.00 74 1012.2
20260505060049 62 231 6.0 15.0 0.00 0.00 0.00 74 1012.2
20260505054554 63 213 7.0 16.0 0.00 0.00 0.00 73 1012.2
20260505053046 63 192 8.0 16.0 0.00 0.00 0.00 73 1012.2
20260505051544 63 246 8.0 17.0 0.00 0.00 0.00 73 1012.3
20260505041544 63 221 7.0 15.0 0.00 0.00 0.00 72 1012.7
20260505040044 63 217 7.0 14.0 0.00 0.00 0.00 73 1012.6
20260505034542 62 195 7.0 14.0 0.00 0.00 0.00 73 1012.6
20260505033043 62 175 7.0 12.0 0.00 0.00 0.00 73 1012.4
20260505031554 62 217 6.0 16.0 0.00 0.00 0.00 73 1012.2
20260505030046 62 205 7.0 18.0 0.00 0.00 0.00 72 1012.3
20260505024548 62 235 7.0 11.0 0.00 0.00 0.00 72 1012.4
20260505023046 63 190 5.0 10.0 0.00 0.00 0.00 72 1012.4
20260505021541 63 167 5.0 13.0 0.00 0.00 0.00 71 1012.4
20260505020041 63 175 7.0 14.0 0.00 0.00 0.00 71 1012.6
20260505014600 63 207 7.0 16.0 0.00 0.00 0.00 70 1012.5
20260505013044 63 169 6.0 12.0 0.00 0.00 0.00 69 1012.5
20260505011548 63 171 4.0 14.0 0.00 0.00 0.00 68 1012.4
20260505010045 63 194 6.0 9.0 0.00 0.00 0.00 67 1012.4
20260505004542 64 188 6.0 13.0 0.00 0.00 0.00 66 1012.4
20260505003046 64 165 4.0 9.0 0.00 0.00 0.00 66 1012.4
20260505001546 65 194 5.0 11.0 0.00 0.00 0.00 65 1012.4
20260505000049 66 188 5.0 12.0 0.00 0.00 0.00 62 1012.2
20260504234542 67 204 5.0 15.0 0.00 0.00 0.00 60 1012.0
20260504233047 67 195 7.0 15.0 0.00 0.00 0.00 59 1011.9
20260504231542 68 196 8.0 17.0 0.00 0.00 0.00 56 1011.7
20260504230050 68 360 10.0 22.0 0.00 0.00 0.00 53 1011.8
20260504224547 69 360 10.0 21.0 0.00 0.00 0.00 51 1011.7
20260504223040 73 360 7.0 19.0 0.00 0.00 0.00 36 1011.8
20260504221543 73 360 8.0 18.0 0.00 0.00 0.00 35 1011.6
20260504220049 74 360 8.0 14.0 0.00 0.00 0.00 33 1011.7
20260504214553 74 360 9.0 16.0 0.00 0.00 0.00 31 1011.8
20260504213049 74 360 9.0 18.0 0.00 0.00 0.00 32 1011.7
20260504211542 74 360 10.0 20.0 0.00 0.00 0.00 32 1011.8
20260504210055 74 360 10.0 17.0 0.00 0.00 0.00 32 1011.8
20260504204557 75 360 7.0 19.0 0.00 0.00 0.00 33 1011.7
20260504203044 74 360 11.0 19.0 0.00 0.00 0.00 32 1011.8
20260504201540 74 360 8.0 17.0 0.00 0.00 0.00 32 1011.8
20260504200043 75 360 6.0 15.0 0.00 0.00 0.00 32 1011.9
20260504194542 75 360 7.0 15.0 0.00 0.00 0.00 32 1012.1
20260504193043 75 360 7.0 14.0 0.00 0.00 0.00 33 1012.3